"Time","Value","Approval","myLocation"
"2023-05-06 00:00",2.37843313328049,"Approved","OW459"
"2023-05-06 01:00",2.36643154795606,"Approved","OW459"
"2023-05-06 02:00",2.35442996263164,"Approved","OW459"
"2023-05-06 03:00",2.35042837730721,"Approved","OW459"
"2023-05-06 04:00",2.34842679198279,"Approved","OW459"
"2023-05-06 05:00",2.34642520665836,"Approved","OW459"
"2023-05-06 06:00",2.34442362133394,"Approved","OW459"
"2023-05-06 07:00",2.34242203600951,"Approved","OW459"
"2023-05-06 08:00",2.34042045068509,"Approved","OW459"
"2023-05-06 09:00",2.33841886536066,"Approved","OW459"
"2023-05-06 10:00",2.33641728003624,"Approved","OW459"
"2023-05-06 11:00",2.33441569471181,"Approved","OW459"
"2023-05-06 12:00",2.33241410938739,"Approved","OW459"
"2023-05-06 13:00",2.33141252406296,"Approved","OW459"
"2023-05-06 14:00",2.32941093873853,"Approved","OW459"
"2023-05-06 15:00",2.32840935341411,"Approved","OW459"
"2023-05-06 16:00",2.32640776808968,"Approved","OW459"
"2023-05-06 17:00",2.32540618276526,"Approved","OW459"
"2023-05-06 18:00",2.32340459744083,"Approved","OW459"
"2023-05-06 19:00",2.32240301211641,"Approved","OW459"
"2023-05-06 20:00",2.32040142679198,"Approved","OW459"
"2023-05-06 21:00",2.31939984146756,"Approved","OW459"
"2023-05-06 22:00",2.33639825614313,"Approved","OW459"
"2023-05-06 23:00",2.34539667081871,"Approved","OW459"
"2023-05-07 00:00",2.32239508549428,"Approved","OW459"
"2023-05-07 01:00",2.31739350016986,"Approved","OW459"
"2023-05-07 02:00",2.31639191484543,"Approved","OW459"
"2023-05-07 03:00",2.31439032952101,"Approved","OW459"
"2023-05-07 04:00",2.31238874419658,"Approved","OW459"
"2023-05-07 05:00",2.31138715887215,"Approved","OW459"
"2023-05-07 06:00",2.30938557354773,"Approved","OW459"
"2023-05-07 07:00",2.3073839882233,"Approved","OW459"
"2023-05-07 08:00",2.30638240289888,"Approved","OW459"
"2023-05-07 09:00",2.30538081757445,"Approved","OW459"
"2023-05-07 10:00",2.30437923225003,"Approved","OW459"
"2023-05-07 11:00",2.3023776469256,"Approved","OW459"
"2023-05-07 12:00",2.30137606160118,"Approved","OW459"
"2023-05-07 13:00",2.30037447627675,"Approved","OW459"
"2023-05-07 14:00",2.29937289095233,"Approved","OW459"
"2023-05-07 15:00",2.2983713056279,"Approved","OW459"
"2023-05-07 16:00",2.29736972030348,"Approved","OW459"
"2023-05-07 17:00",2.29636813497905,"Approved","OW459"
"2023-05-07 18:00",2.29536654965463,"Approved","OW459"
"2023-05-07 19:00",2.2943649643302,"Approved","OW459"
"2023-05-07 20:00",2.29336337900578,"Approved","OW459"
"2023-05-07 21:00",2.29236179368135,"Approved","OW459"
"2023-05-07 22:00",2.29236020835692,"Approved","OW459"
"2023-05-07 23:00",2.2913586230325,"Approved","OW459"
"2023-05-08 00:00",2.28935703770807,"Approved","OW459"
"2023-05-08 01:00",2.28935545238365,"Approved","OW459"
"2023-05-08 02:00",2.28835386705922,"Approved","OW459"
"2023-05-08 03:00",2.2873522817348,"Approved","OW459"
"2023-05-08 04:00",2.28635069641037,"Approved","OW459"
"2023-05-08 05:00",2.28534911108595,"Approved","OW459"
"2023-05-08 06:00",2.28534752576152,"Approved","OW459"
"2023-05-08 07:00",2.2843459404371,"Approved","OW459"
"2023-05-08 08:00",2.28334435511267,"Approved","OW459"
"2023-05-08 09:00",2.28234276978825,"Approved","OW459"
"2023-05-08 10:00",2.28234118446382,"Approved","OW459"
"2023-05-08 11:00",2.2803395991394,"Approved","OW459"
"2023-05-08 12:00",2.28033801381497,"Approved","OW459"
"2023-05-08 13:00",2.27933642849054,"Approved","OW459"
"2023-05-08 14:00",2.27933484316612,"Approved","OW459"
"2023-05-08 15:00",2.27833325784169,"Approved","OW459"
"2023-05-08 16:00",2.27833167251727,"Approved","OW459"
"2023-05-08 17:00",2.27733008719284,"Approved","OW459"
"2023-05-08 18:00",2.27732850186842,"Approved","OW459"
"2023-05-08 19:00",2.27732691654399,"Approved","OW459"
"2023-05-08 20:00",2.27732533121957,"Approved","OW459"
"2023-05-08 21:00",2.27632374589514,"Approved","OW459"
"2023-05-08 22:00",2.27632216057072,"Approved","OW459"
"2023-05-08 23:00",2.27632057524629,"Approved","OW459"
"2023-05-09 00:00",2.27531898992187,"Approved","OW459"
"2023-05-09 01:00",2.27531740459744,"Approved","OW459"
"2023-05-09 02:00",2.27531581927302,"Approved","OW459"
"2023-05-09 03:00",2.27431423394859,"Approved","OW459"
"2023-05-09 04:00",2.27431264862416,"Approved","OW459"
"2023-05-09 05:00",2.27431106329974,"Approved","OW459"
"2023-05-09 06:00",2.27330947797531,"Approved","OW459"
"2023-05-09 07:00",2.27330789265089,"Approved","OW459"
"2023-05-09 08:00",2.27330630732646,"Approved","OW459"
"2023-05-09 09:00",2.27230472200204,"Approved","OW459"
"2023-05-09 10:00",2.27230313667761,"Approved","OW459"
"2023-05-09 11:00",2.27230155135319,"Approved","OW459"
"2023-05-09 12:00",2.27229996602876,"Approved","OW459"
"2023-05-09 13:00",2.30029838070434,"Approved","OW459"
"2023-05-09 14:00",2.28529679537991,"Approved","OW459"
"2023-05-09 15:00",2.27929521005549,"Approved","OW459"
"2023-05-09 16:00",2.27729362473106,"Approved","OW459"
"2023-05-09 17:00",2.27629203940664,"Approved","OW459"
"2023-05-09 18:00",2.27529045408221,"Approved","OW459"
"2023-05-09 19:00",2.27428886875779,"Approved","OW459"
"2023-05-09 20:00",2.27428728343336,"Approved","OW459"
"2023-05-09 21:00",2.27328569810893,"Approved","OW459"
"2023-05-09 22:00",2.27428411278451,"Approved","OW459"
"2023-05-09 23:00",2.27328252746008,"Approved","OW459"
"2023-05-10 00:00",2.27328094213566,"Approved","OW459"
"2023-05-10 01:00",2.27327935681123,"Approved","OW459"
"2023-05-10 02:00",2.27327777148681,"Approved","OW459"
"2023-05-10 03:00",2.27327618616238,"Approved","OW459"
"2023-05-10 04:00",2.27327460083796,"Approved","OW459"
"2023-05-10 05:00",2.27327301551353,"Approved","OW459"
"2023-05-10 06:00",2.27227143018911,"Approved","OW459"
"2023-05-10 07:00",2.27226984486468,"Approved","OW459"
"2023-05-10 08:00",2.27226825954026,"Approved","OW459"
"2023-05-10 09:00",2.27226667421583,"Approved","OW459"
"2023-05-10 10:00",2.27226508889141,"Approved","OW459"
"2023-05-10 11:00",2.27226350356698,"Approved","OW459"
"2023-05-10 12:00",2.27226191824255,"Approved","OW459"
"2023-05-10 13:00",2.27226033291813,"Approved","OW459"
"2023-05-10 14:00",2.2722587475937,"Approved","OW459"
"2023-05-10 15:00",2.27225716226928,"Approved","OW459"
"2023-05-10 16:00",2.27225557694485,"Approved","OW459"
"2023-05-10 17:00",2.29825399162043,"Approved","OW459"
"2023-05-10 18:00",2.298252406296,"Approved","OW459"
"2023-05-10 19:00",2.28125082097158,"Approved","OW459"
"2023-05-10 20:00",2.27924923564715,"Approved","OW459"
"2023-05-10 21:00",2.27724765032273,"Approved","OW459"
"2023-05-10 22:00",2.2782460649983,"Approved","OW459"
"2023-05-10 23:00",2.27824447967388,"Approved","OW459"
"2023-05-11 00:00",2.30524289434945,"Approved","OW459"
"2023-05-11 01:00",2.31124130902503,"Approved","OW459"
"2023-05-11 02:00",2.2862397237006,"Approved","OW459"
"2023-05-11 03:00",2.28423813837618,"Approved","OW459"
"2023-05-11 04:00",2.28223655305175,"Approved","OW459"
"2023-05-11 05:00",2.30723496772732,"Approved","OW459"
"2023-05-11 06:00",2.3142333824029,"Approved","OW459"
"2023-05-11 07:00",2.29223179707847,"Approved","OW459"
"2023-05-11 08:00",2.28823021175405,"Approved","OW459"
"2023-05-11 09:00",2.28622862642962,"Approved","OW459"
"2023-05-11 10:00",2.2852270411052,"Approved","OW459"
"2023-05-11 11:00",2.28522545578077,"Approved","OW459"
"2023-05-11 12:00",2.28422387045635,"Approved","OW459"
"2023-05-11 13:00",2.28422228513192,"Approved","OW459"
"2023-05-11 14:00",2.2842206998075,"Approved","OW459"
"2023-05-11 15:00",2.28421911448307,"Approved","OW459"
"2023-05-11 16:00",2.28521752915865,"Approved","OW459"
"2023-05-11 17:00",2.28521594383422,"Approved","OW459"
"2023-05-11 18:00",2.28621435850979,"Approved","OW459"
"2023-05-11 19:00",2.28621277318537,"Approved","OW459"
"2023-05-11 20:00",2.28521118786094,"Approved","OW459"
"2023-05-11 21:00",2.28520960253652,"Approved","OW459"
"2023-05-11 22:00",2.28520801721209,"Approved","OW459"
"2023-05-11 23:00",2.28620643188767,"Approved","OW459"
"2023-05-12 00:00",2.28620484656324,"Approved","OW459"
"2023-05-12 01:00",2.28620326123882,"Approved","OW459"
"2023-05-12 02:00",2.28720167591439,"Approved","OW459"
"2023-05-12 03:00",2.28620009058997,"Approved","OW459"
"2023-05-12 04:00",2.28619850526554,"Approved","OW459"
"2023-05-12 05:00",2.28719691994112,"Approved","OW459"
"2023-05-12 06:00",2.28719533461669,"Approved","OW459"
"2023-05-12 07:00",2.28719374929227,"Approved","OW459"
"2023-05-12 08:00",2.28719216396784,"Approved","OW459"
"2023-05-12 09:00",2.28719057864342,"Approved","OW459"
"2023-05-12 10:00",2.28718899331899,"Approved","OW459"
"2023-05-12 11:00",2.28818740799456,"Approved","OW459"
"2023-05-12 12:00",2.28818582267014,"Approved","OW459"
"2023-05-12 13:00",2.28818423734571,"Approved","OW459"
"2023-05-12 14:00",2.28818265202129,"Approved","OW459"
"2023-05-12 15:00",2.28918106669686,"Approved","OW459"
"2023-05-12 16:00",2.28817948137244,"Approved","OW459"
"2023-05-12 17:00",2.28817789604801,"Approved","OW459"
"2023-05-12 18:00",2.28917631072359,"Approved","OW459"
"2023-05-12 19:00",2.28217472539916,"Approved","OW459"
"2023-05-12 20:00",2.29117314007474,"Approved","OW459"
"2023-05-12 21:00",2.31917155475031,"Approved","OW459"
"2023-05-12 22:00",2.30216996942589,"Approved","OW459"
"2023-05-12 23:00",2.29816838410146,"Approved","OW459"
"2023-05-13 00:00",2.31516679877704,"Approved","OW459"
"2023-05-13 01:00",2.32716521345261,"Approved","OW459"
"2023-05-13 02:00",2.30616362812818,"Approved","OW459"
"2023-05-13 03:00",2.30216204280376,"Approved","OW459"
"2023-05-13 04:00",2.30116045747933,"Approved","OW459"
"2023-05-13 05:00",2.30015887215491,"Approved","OW459"
"2023-05-13 06:00",2.30015728683048,"Approved","OW459"
"2023-05-13 07:00",2.29915570150606,"Approved","OW459"
"2023-05-13 08:00",2.29815411618163,"Approved","OW459"
"2023-05-13 09:00",2.29815253085721,"Approved","OW459"
"2023-05-13 10:00",2.29815094553278,"Approved","OW459"
"2023-05-13 11:00",2.29814936020836,"Approved","OW459"
"2023-05-13 12:00",2.29814777488393,"Approved","OW459"
"2023-05-13 13:00",2.29814618955951,"Approved","OW459"
"2023-05-13 14:00",2.29814460423508,"Approved","OW459"
"2023-05-13 15:00",2.29814301891066,"Approved","OW459"
"2023-05-13 16:00",2.31414143358623,"Approved","OW459"
"2023-05-13 17:00",2.3281398482618,"Approved","OW459"
"2023-05-13 18:00",2.31213826293738,"Approved","OW459"
"2023-05-13 19:00",2.30513667761295,"Approved","OW459"
"2023-05-13 20:00",2.30313509228853,"Approved","OW459"
"2023-05-13 21:00",2.3051335069641,"Approved","OW459"
"2023-05-13 22:00",2.33213192163968,"Approved","OW459"
"2023-05-13 23:00",2.33613033631525,"Approved","OW459"
"2023-05-14 00:00",2.32112875099083,"Approved","OW459"
"2023-05-14 01:00",2.3101271656664,"Approved","OW459"
"2023-05-14 02:00",2.30812558034198,"Approved","OW459"
"2023-05-14 03:00",2.30612399501755,"Approved","OW459"
"2023-05-14 04:00",2.30612240969313,"Approved","OW459"
"2023-05-14 05:00",2.3051208243687,"Approved","OW459"
"2023-05-14 06:00",2.30311923904428,"Approved","OW459"
"2023-05-14 07:00",2.30211765371985,"Approved","OW459"
"2023-05-14 08:00",2.30111606839543,"Approved","OW459"
"2023-05-14 09:00",2.301114483071,"Approved","OW459"
"2023-05-14 10:00",2.30011289774657,"Approved","OW459"
"2023-05-14 11:00",2.29911131242215,"Approved","OW459"
"2023-05-14 12:00",2.29910972709772,"Approved","OW459"
"2023-05-14 13:00",2.2981081417733,"Approved","OW459"
"2023-05-14 14:00",2.32110655644887,"Approved","OW459"
"2023-05-14 15:00",2.33110497112445,"Approved","OW459"
"2023-05-14 16:00",2.30810338580002,"Approved","OW459"
"2023-05-14 17:00",2.3031018004756,"Approved","OW459"
"2023-05-14 18:00",2.30210021515117,"Approved","OW459"
"2023-05-14 19:00",2.30109862982675,"Approved","OW459"
"2023-05-14 20:00",2.30009704450232,"Approved","OW459"
"2023-05-14 21:00",2.2990954591779,"Approved","OW459"
"2023-05-14 22:00",2.32209387385347,"Approved","OW459"
"2023-05-14 23:00",2.33009228852905,"Approved","OW459"
"2023-05-15 00:00",2.31109070320462,"Approved","OW459"
"2023-05-15 01:00",2.30508911788019,"Approved","OW459"
"2023-05-15 02:00",2.30308753255577,"Approved","OW459"
"2023-05-15 03:00",2.30208594723134,"Approved","OW459"
"2023-05-15 04:00",2.30108436190692,"Approved","OW459"
"2023-05-15 05:00",2.30108277658249,"Approved","OW459"
"2023-05-15 06:00",2.30008119125807,"Approved","OW459"
"2023-05-15 07:00",2.29907960593364,"Approved","OW459"
"2023-05-15 08:00",2.29807802060922,"Approved","OW459"
"2023-05-15 09:00",2.29707643528479,"Approved","OW459"
"2023-05-15 10:00",2.29707484996037,"Approved","OW459"
"2023-05-15 11:00",2.29607326463594,"Approved","OW459"
"2023-05-15 12:00",2.29507167931152,"Approved","OW459"
"2023-05-15 13:00",2.29507009398709,"Approved","OW459"
"2023-05-15 14:00",2.29506850866267,"Approved","OW459"
"2023-05-15 15:00",2.32006692333824,"Approved","OW459"
"2023-05-15 16:00",2.32806533801382,"Approved","OW459"
"2023-05-15 17:00",2.31306375268939,"Approved","OW459"
"2023-05-15 18:00",2.30606216736496,"Approved","OW459"
"2023-05-15 19:00",2.32406058204054,"Approved","OW459"
"2023-05-15 20:00",2.33305899671611,"Approved","OW459"
"2023-05-15 21:00",2.33705741139169,"Approved","OW459"
"2023-05-15 22:00",2.34005582606726,"Approved","OW459"
"2023-05-15 23:00",2.31305424074284,"Approved","OW459"
"2023-05-16 00:00",2.30905265541841,"Approved","OW459"
"2023-05-16 01:00",2.30605107009399,"Approved","OW459"
"2023-05-16 02:00",2.30404948476956,"Approved","OW459"
"2023-05-16 03:00",2.30304789944514,"Approved","OW459"
"2023-05-16 04:00",2.30204631412071,"Approved","OW459"
"2023-05-16 05:00",2.30104472879629,"Approved","OW459"
"2023-05-16 06:00",2.30004314347186,"Approved","OW459"
"2023-05-16 07:00",2.30004155814744,"Approved","OW459"
"2023-05-16 08:00",2.30003997282301,"Approved","OW459"
"2023-05-16 09:00",2.29903838749858,"Approved","OW459"
"2023-05-16 10:00",2.29903680217416,"Approved","OW459"
"2023-05-16 11:00",2.29803521684973,"Approved","OW459"
"2023-05-16 12:00",2.29803363152531,"Approved","OW459"
"2023-05-16 13:00",2.29703204620088,"Approved","OW459"
"2023-05-16 14:00",2.29703046087646,"Approved","OW459"
"2023-05-16 15:00",2.29702887555203,"Approved","OW459"
"2023-05-16 16:00",2.31402729022761,"Approved","OW459"
"2023-05-16 17:00",2.31602570490318,"Approved","OW459"
"2023-05-16 18:00",2.30302411957876,"Approved","OW459"
"2023-05-16 19:00",2.30002253425433,"Approved","OW459"
"2023-05-16 20:00",2.29902094892991,"Approved","OW459"
"2023-05-16 21:00",2.29801936360548,"Approved","OW459"
"2023-05-16 22:00",2.29801777828106,"Approved","OW459"
"2023-05-16 23:00",2.29501619295663,"Approved","OW459"
"2023-05-17 00:00",2.2960146076322,"Approved","OW459"
"2023-05-17 01:00",2.29401302230778,"Approved","OW459"
"2023-05-17 02:00",2.29401143698335,"Approved","OW459"
"2023-05-17 03:00",2.29300985165893,"Approved","OW459"
"2023-05-17 04:00",2.2980082663345,"Approved","OW459"
"2023-05-17 05:00",2.29300668101008,"Approved","OW459"
"2023-05-17 06:00",2.29200509568565,"Approved","OW459"
"2023-05-17 07:00",2.29100351036123,"Approved","OW459"
"2023-05-17 08:00",2.2910019250368,"Approved","OW459"
"2023-05-17 09:00",2.29000033971238,"Approved","OW459"
"2023-05-17 10:00",2.28899875438795,"Approved","OW459"
"2023-05-17 11:00",2.28899716906353,"Approved","OW459"
"2023-05-17 12:00",2.2879955837391,"Approved","OW459"
"2023-05-17 13:00",2.28799399841468,"Approved","OW459"
"2023-05-17 14:00",2.30399241309025,"Approved","OW459"
"2023-05-17 15:00",2.30899082776582,"Approved","OW459"
"2023-05-17 16:00",2.3099892424414,"Approved","OW459"
"2023-05-17 17:00",2.32298765711697,"Approved","OW459"
"2023-05-17 18:00",2.29798607179255,"Approved","OW459"
"2023-05-17 19:00",2.29598448646812,"Approved","OW459"
"2023-05-17 20:00",2.3189829011437,"Approved","OW459"
"2023-05-17 21:00",2.30998131581927,"Approved","OW459"
"2023-05-17 22:00",2.31497973049485,"Approved","OW459"
"2023-05-17 23:00",2.31597814517042,"Approved","OW459"
"2023-05-18 00:00",2.302976559846,"Approved","OW459"
"2023-05-18 01:00",2.29597497452157,"Approved","OW459"
"2023-05-18 02:00",2.29297338919715,"Approved","OW459"
"2023-05-18 03:00",2.29097180387272,"Approved","OW459"
"2023-05-18 04:00",2.2899702185483,"Approved","OW459"
"2023-05-18 05:00",2.28896863322387,"Approved","OW459"
"2023-05-18 06:00",2.28796704789945,"Approved","OW459"
"2023-05-18 07:00",2.28696546257502,"Approved","OW459"
"2023-05-18 08:00",2.28596387725059,"Approved","OW459"
"2023-05-18 09:00",2.28496229192617,"Approved","OW459"
"2023-05-18 10:00",2.28396070660174,"Approved","OW459"
"2023-05-18 11:00",2.28295912127732,"Approved","OW459"
"2023-05-18 12:00",2.28295753595289,"Approved","OW459"
"2023-05-18 13:00",2.28295595062847,"Approved","OW459"
"2023-05-18 14:00",2.28295436530404,"Approved","OW459"
"2023-05-18 15:00",2.28195277997962,"Approved","OW459"
"2023-05-18 16:00",2.28195119465519,"Approved","OW459"
"2023-05-18 17:00",2.28194960933077,"Approved","OW459"
"2023-05-18 18:00",2.28194802400634,"Approved","OW459"
"2023-05-18 19:00",2.28194643868192,"Approved","OW459"
"2023-05-18 20:00",2.28094485335749,"Approved","OW459"
"2023-05-18 21:00",2.28194326803307,"Approved","OW459"
"2023-05-18 22:00",2.29694168270864,"Approved","OW459"
"2023-05-18 23:00",2.30394009738421,"Approved","OW459"
"2023-05-19 00:00",2.30993851205979,"Approved","OW459"
"2023-05-19 01:00",2.31393692673536,"Approved","OW459"
"2023-05-19 02:00",2.29693534141094,"Approved","OW459"
"2023-05-19 03:00",2.29493375608651,"Approved","OW459"
"2023-05-19 04:00",2.29393217076209,"Approved","OW459"
"2023-05-19 05:00",2.31293058543766,"Approved","OW459"
"2023-05-19 06:00",2.31692900011324,"Approved","OW459"
"2023-05-19 07:00",2.30292741478881,"Approved","OW459"
"2023-05-19 08:00",2.29992582946439,"Approved","OW459"
"2023-05-19 09:00",2.29792424413996,"Approved","OW459"
"2023-05-19 10:00",2.29792265881554,"Approved","OW459"
"2023-05-19 11:00",2.29692107349111,"Approved","OW459"
"2023-05-19 12:00",2.29691948816669,"Approved","OW459"
"2023-05-19 13:00",2.29591790284226,"Approved","OW459"
"2023-05-19 14:00",2.29691631751784,"Approved","OW459"
"2023-05-19 15:00",2.29691473219341,"Approved","OW459"
"2023-05-19 16:00",2.29691314686898,"Approved","OW459"
"2023-05-19 17:00",2.28891156154456,"Approved","OW459"
"2023-05-19 18:00",2.29790997622013,"Approved","OW459"
"2023-05-19 19:00",2.29690839089571,"Approved","OW459"
"2023-05-19 20:00",2.29690680557128,"Approved","OW459"
"2023-05-19 21:00",2.31090522024686,"Approved","OW459"
"2023-05-19 22:00",2.31890363492243,"Approved","OW459"
"2023-05-19 23:00",2.30990204959801,"Approved","OW459"
"2023-05-20 00:00",2.30290046427358,"Approved","OW459"
"2023-05-20 01:00",2.30289887894916,"Approved","OW459"
"2023-05-20 02:00",2.30189729362473,"Approved","OW459"
"2023-05-20 03:00",2.30089570830031,"Approved","OW459"
"2023-05-20 04:00",2.30089412297588,"Approved","OW459"
"2023-05-20 05:00",2.30189253765145,"Approved","OW459"
"2023-05-20 06:00",2.30089095232703,"Approved","OW459"
"2023-05-20 07:00",2.3008893670026,"Approved","OW459"
"2023-05-20 08:00",2.30088778167818,"Approved","OW459"
"2023-05-20 09:00",2.29988619635375,"Approved","OW459"
"2023-05-20 10:00",2.29988461102933,"Approved","OW459"
"2023-05-20 11:00",2.2998830257049,"Approved","OW459"
"2023-05-20 12:00",2.29988144038048,"Approved","OW459"
"2023-05-20 13:00",2.30087985505605,"Approved","OW459"
"2023-05-20 14:00",2.30087826973163,"Approved","OW459"
"2023-05-20 15:00",2.3018766844072,"Approved","OW459"
"2023-05-20 16:00",2.31987509908278,"Approved","OW459"
"2023-05-20 17:00",2.32587351375835,"Approved","OW459"
"2023-05-20 18:00",2.33087192843393,"Approved","OW459"
"2023-05-20 19:00",2.3328703431095,"Approved","OW459"
"2023-05-20 20:00",2.32186875778508,"Approved","OW459"
"2023-05-20 21:00",2.31386717246065,"Approved","OW459"
"2023-05-20 22:00",2.33486558713622,"Approved","OW459"
"2023-05-20 23:00",2.3368640018118,"Approved","OW459"
"2023-05-21 00:00",2.33986241648737,"Approved","OW459"
"2023-05-21 01:00",2.32886083116295,"Approved","OW459"
"2023-05-21 02:00",2.31885924583852,"Approved","OW459"
"2023-05-21 03:00",2.3168576605141,"Approved","OW459"
"2023-05-21 04:00",2.31585607518967,"Approved","OW459"
"2023-05-21 05:00",2.31585448986525,"Approved","OW459"
"2023-05-21 06:00",2.31485290454082,"Approved","OW459"
"2023-05-21 07:00",2.3148513192164,"Approved","OW459"
"2023-05-21 08:00",2.31384973389197,"Approved","OW459"
"2023-05-21 09:00",2.31284814856755,"Approved","OW459"
"2023-05-21 10:00",2.31284656324312,"Approved","OW459"
"2023-05-21 11:00",2.3118449779187,"Approved","OW459"
"2023-05-21 12:00",2.31184339259427,"Approved","OW459"
"2023-05-21 13:00",2.31184180726985,"Approved","OW459"
"2023-05-21 14:00",2.31184022194542,"Approved","OW459"
"2023-05-21 15:00",2.31183863662099,"Approved","OW459"
"2023-05-21 16:00",2.33183705129657,"Approved","OW459"
"2023-05-21 17:00",2.33683546597214,"Approved","OW459"
"2023-05-21 18:00",2.32083388064772,"Approved","OW459"
"2023-05-21 19:00",2.31683229532329,"Approved","OW459"
"2023-05-21 20:00",2.31583070999887,"Approved","OW459"
"2023-05-21 21:00",2.31482912467444,"Approved","OW459"
"2023-05-21 22:00",2.31382753935002,"Approved","OW459"
"2023-05-21 23:00",2.33282595402559,"Approved","OW459"
"2023-05-22 00:00",2.33782436870117,"Approved","OW459"
"2023-05-22 01:00",2.32182278337674,"Approved","OW459"
"2023-05-22 02:00",2.31882119805232,"Approved","OW459"
"2023-05-22 03:00",2.31681961272789,"Approved","OW459"
"2023-05-22 04:00",2.31681802740347,"Approved","OW459"
"2023-05-22 05:00",2.31581644207904,"Approved","OW459"
"2023-05-22 06:00",2.31581485675461,"Approved","OW459"
"2023-05-22 07:00",2.31381327143019,"Approved","OW459"
"2023-05-22 08:00",2.31481168610576,"Approved","OW459"
"2023-05-22 09:00",2.31381010078134,"Approved","OW459"
"2023-05-22 10:00",2.31380851545691,"Approved","OW459"
"2023-05-22 11:00",2.31380693013249,"Approved","OW459"
"2023-05-22 12:00",2.31380534480806,"Approved","OW459"
"2023-05-22 13:00",2.31380375948364,"Approved","OW459"
"2023-05-22 14:00",2.31380217415921,"Approved","OW459"
"2023-05-22 15:00",2.31580058883479,"Approved","OW459"
"2023-05-22 16:00",2.31479900351036,"Approved","OW459"
"2023-05-22 17:00",2.31479741818594,"Approved","OW459"
"2023-05-22 18:00",2.31379583286151,"Approved","OW459"
"2023-05-22 19:00",2.31379424753709,"Approved","OW459"
"2023-05-22 20:00",2.31379266221266,"Approved","OW459"
"2023-05-22 21:00",2.31279107688823,"Approved","OW459"
"2023-05-22 22:00",2.31278949156381,"Approved","OW459"
"2023-05-22 23:00",2.31178790623938,"Approved","OW459"
"2023-05-23 00:00",2.31178632091496,"Approved","OW459"
"2023-05-23 01:00",2.31178473559053,"Approved","OW459"
"2023-05-23 02:00",2.31178315026611,"Approved","OW459"
"2023-05-23 03:00",2.31078156494168,"Approved","OW459"
"2023-05-23 04:00",2.31077997961726,"Approved","OW459"
"2023-05-23 05:00",2.31077839429283,"Approved","OW459"
"2023-05-23 06:00",2.31077680896841,"Approved","OW459"
"2023-05-23 07:00",2.31077522364398,"Approved","OW459"
"2023-05-23 08:00",2.31077363831956,"Approved","OW459"
"2023-05-23 09:00",2.31077205299513,"Approved","OW459"
"2023-05-23 10:00",2.31077046767071,"Approved","OW459"
"2023-05-23 11:00",2.31076888234628,"Approved","OW459"
"2023-05-23 12:00",2.31076729702185,"Approved","OW459"
"2023-05-23 13:00",2.31076571169743,"Approved","OW459"
"2023-05-23 14:00",2.311764126373,"Approved","OW459"
"2023-05-23 15:00",2.31176254104858,"Approved","OW459"
"2023-05-23 16:00",2.31176095572415,"Approved","OW459"
"2023-05-23 17:00",2.31175937039973,"Approved","OW459"
"2023-05-23 18:00",2.3117577850753,"Approved","OW459"
"2023-05-23 19:00",2.31175619975088,"Approved","OW459"